Location: Asheville, NC
(35.6000°N, 82.5500°W)
Time: 00:24:31
(UTC-04:00)

CAS-4B - Pass Details

Date: 18 March 2018
Orbit: 533 x 544 km, 43.0° (Epoch: 18 June)

Event Time Altitude Azimuth Distance (km) Brightness Sun altitude
Exits shadow 06:59:17 - 222° (SW) 2,379 ? -8.4°
Reaches altitude 10° 07:00:49 10° 217° (SW) 1,789 ? -8.1°
Maximum altitude 07:04:43 43° 146° (SE) 765 ? -7.3°
Drops below altitude 10° 07:08:38 10° 74° (ENE) 1,800 ? -6.5°
Sets 07:10:57 0° 68° (ENE) 2,695 ? -6.1°
